India Forums Logo

Hum ne li hai... Shapath

India Forums > Forum Index > Hum ne li hai... Shapath
Hum ne li hai... Shapath is a story of tough cops against the flawed system with thrilling and contemporary police cases weaved in.
...
<< | 3 | 4 | 5 | 6 | 7 | 8 | 9 | 10 | 11 | 12 | 13 | 14 | 15 | 16 | 17 | 18 | 19 | 20 | 21 | >>
TIDTopic SubjectStart DateLast Entry
3197049WELCOME BACK INSPECTOR ABHIGYAN9/15/2012 1:32:56 PM9/16/2012 3:32:06 PM
3197290Aamir Dalvi as Inspector Kavi9/15/2012 11:29:47 PM9/21/2012 5:24:40 PM
3197578|~The Veteran and Charming Piyush Sahdev AT#3~|9/16/2012 5:24:57 AM10/17/2012 1:51:26 PM
319793115th Sep -- EHQ Shapath Season 2*Eng subs* WO/DL9/16/2012 10:31:29 AM9/16/2012 10:31:29 AM
319829716th Sep -- EHQ Shapath Season 2*Eng subs* WO/DL9/16/2012 7:28:09 PM9/16/2012 7:28:09 PM
3198324HAPPY BIRTHDAY MANSI.9/16/2012 8:39:46 PM10/12/2012 12:13:44 AM
319832816/09/2012 WU: Forced Suicide Bombers9/16/2012 8:42:53 PM9/19/2012 1:14:00 AM
3198383Wat about Gautam...9/16/2012 10:48:51 PM9/19/2012 1:04:59 AM
3199339Tribute to the friendship of Abhi n Gautam!!!9/17/2012 10:17:31 AM9/20/2012 2:00:41 AM
3201988Don't follow your heart. It will leave you confuse9/19/2012 1:54:30 AM9/22/2012 5:38:39 AM
3201989Madhura Naik says, Indian men are not upto the mar9/19/2012 1:57:08 AM9/19/2012 10:56:54 AM
3204012TB: Madhura Naik Interview9/20/2012 8:12:22 AM9/21/2012 5:21:43 PM
3204234Karan Kundra and I are seeing each other: Madhura9/20/2012 9:29:29 AM9/21/2012 9:23:29 AM
3206345New entry in Shapath9/21/2012 10:56:34 AM9/22/2012 6:14:09 AM
320801522nd Sep -- EHQ Shapath Season 2*Eng subs* WO/DL9/22/2012 2:07:25 PM9/22/2012 2:07:25 PM
3208379Two new entries!9/23/2012 2:08:10 AM9/23/2012 1:35:48 PM
3208397Aamir Dalvi aka Kavi's interview9/23/2012 2:24:08 AM9/24/2012 1:05:37 AM
3209146Kavi's Dialogue Corner9/23/2012 8:38:24 PM10/7/2012 12:12:11 PM
3209149Has FW lost it?9/23/2012 8:40:09 PM10/20/2012 1:10:35 AM
320915923rd Sep -- EHQ Shapath Season 2*Eng subs* WO/DL9/23/2012 8:56:55 PM9/25/2012 6:36:59 AM
320917423/09/2012 WU: The Mailman's Murder9/23/2012 9:40:18 PM9/25/2012 1:00:43 PM
3209771GOTW: Kill and Reason (Closed)9/24/2012 7:34:12 AM9/30/2012 7:21:56 PM
3210223||HNLHS Banner Contest Results||9/24/2012 10:41:05 AM9/28/2012 12:44:39 PM
3211935**Happy Birthday Cool and Handsome HASAN ZAIDI**9/25/2012 10:12:40 AM10/1/2012 6:21:22 AM
3212030Sargun Mehta's Interview9/25/2012 10:37:58 AM9/25/2012 9:56:50 PM
3214080Simran Sachdev in Hum Ne Li Hai... Shapath9/26/2012 11:26:07 AM10/19/2012 8:17:48 PM
3214860Priya Shinde to enter Hum Ne Li Hai... Shapath9/27/2012 2:38:21 AM9/27/2012 6:53:29 PM
3215075Fenil Umigar to be seen in Gumraah9/27/2012 5:09:22 AM9/27/2012 6:52:24 PM
3216960Karan Kundra and Madhura Naik9/28/2012 5:50:38 AM10/5/2012 1:22:30 AM
3218443A rare case solved bu the brave officers9/29/2012 1:18:52 AM9/29/2012 5:58:55 PM
321928129th Sep -- EHQ Shapath Season 2*Eng subs* WO/DL9/29/2012 2:06:08 PM9/29/2012 2:06:08 PM
3220309Abhigyan fans are better than Gautam fans9/30/2012 11:26:03 AM9/30/2012 6:41:54 PM
322048530th Sep -- EHQ Shapath Season 2*Eng subs* WO/DL9/30/2012 4:21:14 PM10/2/2012 12:16:58 AM
3220540GOTW: Hug and Reason (Closed)9/30/2012 7:21:29 PM10/9/2012 2:43:32 PM
322058130/09/2012 WU: Ganesha Puja Special9/30/2012 9:21:17 PM10/2/2012 12:16:13 AM
3222378Padam Singh to play an important role10/2/2012 2:30:21 AM10/2/2012 1:33:22 PM
3225725Vineet Raina replaces Sarwar Ahuja in Punar Vivah10/4/2012 3:17:17 AM10/4/2012 9:35:17 AM
3226033|~Member's Choice IF Awards: Fall '12 - VOTE NOW~|10/4/2012 6:58:34 AM10/6/2012 1:56:10 PM
3226384Episodic TV shows back in fashion10/4/2012 10:08:26 AM10/4/2012 10:06:20 PM
3227509Three new entries10/5/2012 3:34:59 AM10/6/2012 9:59:16 AM
3228749Goldies Ki Ladai (On break till Oct. 18)10/5/2012 8:42:38 PM10/18/2012 11:16:31 AM
3229757Is Damini in love with Shaurya?10/6/2012 2:02:23 PM10/20/2012 12:07:09 PM
3229771Is the personal aspect back?10/6/2012 2:15:12 PM10/12/2012 1:18:18 AM
32297846th Oct -- EHQ Shapath Season 2*Eng subs* WO/DL10/6/2012 2:20:44 PM10/7/2012 9:58:51 PM
3230085Sarwar Ahuja 'calls for a party' after fracturing10/7/2012 1:13:56 AM10/7/2012 9:32:10 AM
3230088How many likes for Shaurya & Damini's Jodi10/7/2012 1:24:40 AM10/16/2012 1:36:41 PM
3230361Resembled with Gautam10/7/2012 6:54:00 AM10/7/2012 3:31:20 PM
3230392Sarwar Ahuja 'calls for a party' after a fracture10/7/2012 7:41:30 AM10/7/2012 9:19:15 AM
32308097/10/2012 WU: The Two Killers10/7/2012 3:56:19 PM10/8/2012 12:23:35 PM
3231103Ur fav COUPLE10/8/2012 2:25:05 AM10/9/2012 1:29:41 AM
3232045||Shapathian of the Week # 1|| Closed10/8/2012 12:49:02 PM10/18/2012 6:03:29 AM
3232501Preeti Amin and Sheela Sharma in Hum Ne Li Hai...S10/9/2012 1:43:00 AM10/9/2012 8:27:36 AM
3232505Sukirti Kandpal's 'Mystery of Clones' in Hum Ne Li10/9/2012 1:46:22 AM10/11/2012 12:45:07 PM
3232514One baffling love story...Madhura-Karan-Kritika10/9/2012 1:53:46 AM10/9/2012 6:23:40 AM
3233704GOTW: Guess the Movie (Closed)10/9/2012 2:42:36 PM10/25/2012 4:57:01 PM
3234220TB:Hum Ne Li Hai...Shapath to go off-air?10/10/2012 2:59:48 AM10/15/2012 12:41:17 PM
3235174Sukirti in Shapath-SBS10/10/2012 12:04:12 PM10/11/2012 11:25:30 AM
3235205samrat10/10/2012 12:20:26 PM10/12/2012 4:17:35 AM
3239108Our Journey (Song Lyrics)10/13/2012 1:06:57 AM10/15/2012 4:26:50 AM
3239808What's this new style?10/13/2012 12:18:41 PM10/17/2012 1:31:13 PM
3239880Sonia, Monisha, Bindiya & Leena- Four in ONE!10/13/2012 1:34:27 PM10/15/2012 11:21:23 AM
3239983The Banner is Up!!!10/13/2012 5:47:12 PM10/15/2012 6:13:43 AM
32399847-13th Oct -- EHQ Shapath Season 2 WO/DL10/13/2012 5:55:04 PM10/13/2012 5:55:04 PM
324079414/10/12 WU: The Conspiracy10/14/2012 1:06:04 PM10/18/2012 2:47:11 AM
3241331FF: Love Gets Its Heart (UPDATED)!!!10/15/2012 4:11:07 AM10/26/2012 1:40:53 AM
3242150||Shapathian of the Week|| Closed10/15/2012 12:44:11 PM10/22/2012 7:52:35 AM
3242290Sadiya Siddiqui, Raymon Singh join hands10/15/2012 3:33:58 PM10/18/2012 5:57:40 AM
3242591Amar Sharma in Hum Ne Li Hai... Shapath10/16/2012 1:39:39 AM10/16/2012 1:13:32 PM
3242633Piyush Sahdev and Akangsha Rawat's Wedding Videos10/16/2012 2:23:13 AM10/17/2012 9:25:23 AM
3242929Madhura Naik to enter Iss Pyaar Ko Kya Naam Doon?10/16/2012 6:33:44 AM10/20/2012 6:28:13 AM
3244329~@THE SMART AND DARING INSPECTOR ABHIGYAN AT #4@~10/17/2012 12:13:21 AM11/13/2012 10:15:38 AM
3246492Perneet Chauhan and Amit Tandon as a couple10/18/2012 6:29:18 AM10/19/2012 6:23:29 PM
3247748Damini looks good with ??10/18/2012 11:58:44 PM10/19/2012 6:24:19 PM
3248284FF Poll10/19/2012 7:47:41 AM10/19/2012 6:25:15 PM
3249315**!!HNLHS~Fan List!!**10/20/2012 12:26:04 AM10/25/2012 5:29:21 AM
<< | 3 | 4 | 5 | 6 | 7 | 8 | 9 | 10 | 11 | 12 | 13 | 14 | 15 | 16 | 17 | 18 | 19 | 20 | 21 | >>